Wind_Speed
41 41 41 41 40 40 41 42 42 43 43 45 47 48 48 48 49 49 50 51 51 51 52 52 52 51 51 50 49 48 48 48 48 48 49 49 50 51 52 51 50 50
43 43 44 43 43 43 44 45 46 46 46 45 46 49 50 51 51 50 50 51 52 52 52 52 53 53 52 51 51 50 50 50 50 50 50 50 51 52 52 52 52 52
46 46 46 45 45 46 47 48 49 50 49 48 48 49 51 52 53 52 51 52 52 52 52 52 52 52 52 52 52 52 52 52 52 52 52 52 52 52 53 53 53 53
49 48 48 47 47 48 49 51 53 53 52 50 50 50 51 52 53 53 52 52 52 52 52 52 52 52 52 52 52 52 52 52 53 54 54 53 53 53 54 54 54 54
51 51 50 49 49 49 51 53 55 56 54 52 52 52 53 53 54 54 53 52 52 52 52 52 52 52 52 53 53 53 53 54 54 55 56 55 54 54 55 55 55 55
54 54 52 51 50 51 52 55 57 57 56 54 53 53 55 55 54 54 54 52 51 51 51 51 51 52 52 52 53 53 54 55 56 56 57 57 56 56 56 56 56 56
57 56 54 52 51 51 53 56 57 57 57 57 56 55 55 56 54 53 53 53 51 50 50 50 50 51 52 52 53 54 55 56 56 57 57 58 58 58 58 58 58 58
60 59 56 53 52 52 54 57 58 58 59 59 58 56 55 56 55 53 53 52 51 50 50 50 50 51 52 53 54 55 56 57 57 57 58 58 59 59 59 59 59 58
62 61 59 55 53 53 54 57 59 60 60 59 59 57 56 55 55 53 52 52 52 51 51 51 52 53 53 54 55 56 57 58 58 58 58 58 59 59 59 59 58 58
62 61 60 58 56 55 55 58 60 61 60 58 58 57 55 54 54 54 53 52 52 52 52 53 54 54 55 56 56 57 58 58 59 58 57 57 58 59 58 58 58 58
62 60 60 59 58 58 58 59 59 59 58 57 57 56 55 53 53 53 53 52 52 53 53 54 55 55 55 55 56 56 57 57 57 57 56 56 56 57 58 58 58 58
62 60 60 60 60 60 59 58 56 56 56 55 55 54 53 52 52 52 52 52 52 53 54 55 55 55 55 55 55 55 55 56 56 56 56 55 55 56 57 57 57 57
64 63 62 63 61 58 56 54 54 53 53 53 52 51 50 50 51 52 52 52 52 53 53 53 53 53 53 53 54 54 54 55 55 55 55 56 56 56 57 57 57 57
68 66 64 62 59 54 52 52 52 52 51 51 50 49 49 49 49 50 51 51 51 51 51 51 51 51 51 51 52 52 53 54 55 55 56 56 56 56 57 57 58 58
68 65 62 60 56 53 52 52 52 52 50 49 49 48 47 47 48 49 50 50 50 49 49 49 49 49 49 49 49 50 51 52 53 54 55 55 56 56 56 57 58 59
64 63 61 59 57 55 54 55 54 53 50 48 47 47 46 46 46 48 48 49 48 48 48 48 48 48 48 48 48 49 50 51 52 53 54 54 55 56 56 57 58 59
62 62 62 60 58 57 57 56 55 52 48 46 46 46 46 46 46 47 48 48 47 47 47 47 47 48 48 49 50 50 52 53 53 54 55 56 56 57 58 59 60 60
63 62 61 59 57 56 56 55 53 49 46 45 45 45 45 45 45 46 45 45 45 45 45 45 46 47 48 49 50 51 52 53 54 55 56 57 58 59 60 62 63 64
61 59 57 56 54 53 52 51 49 47 46 45 45 44 43 43 43 43 42 42 43 43 44 45 46 48 49 50 51 52 53 54 55 56 57 58 59 60 62 63 64 66
57 56 55 54 52 51 50 49 49 48 48 47 47 46 44 43 43 43 43 43 44 44 46 47 48 50 51 52 53 54 55 56 56 57 58 59 60 61 63 64 65 66
55 54 54 53 53 52 52 52 52 51 51 51 50 49 47 46 45 45 45 45 46 47 48 50 51 53 54 55 56 56 57 58 58 58 59 60 61 62 63 64 65 67
57 55 54 55 55 55 55 56 56 55 55 55 54 52 51 50 49 49 48 48 49 50 51 53 54 55 56 57 58 58 59 59 59 59 60 60 61 62 64 65 66 67
59 58 58 58 58 59 59 59 59 58 58 58 58 57 56 55 54 54 53 53 54 54 55 56 57 57 58 59 60 60 61 61 60 60 61 61 62 62 64 65 66 67
61 62 62 63 62 62 62 62 62 62 62 62 62 62 61 60 60 59 59 59 59 59 59 59 59 59 60 60 61 61 62 62 61 61 61 62 62 63 64 65 66 68
66 66 67 67 67 66 66 66 66 66 66 66 66 65 65 65 65 65 65 64 64 63 63 62 62 62 62 62 63 63 62 62 62 62 62 62 63 64 65 66 68 69
74 74 73 72 72 71 71 71 71 71 71 70 70 69 70 70 69 70 70 69 68 68 67 66 65 64 64 64 65 64 63 62 61 61 61 62 63 65 66 68 70 71
Wind_Direction
295 297 299 300 301 303 304 305 304 302 300 298 297 296 294 290 288 287 286 285 285 285 284 283 282 282 282 282 282 282 282 283 283 283 284 285 286 286 285 285 284 284
294 296 297 298 300 301 302 302 302 302 300 297 296 295 294 292 289 287 285 284 284 284 284 284 283 282 283 282 282 282 282 282 283 283 284 284 284 283 283 282 282 283
292 294 296 297 299 300 300 301 301 301 300 299 298 296 294 292 290 288 285 284 283 283 284 284 283 283 283 282 282 283 283 283 283 283 283 283 283 282 281 281 282 283
291 292 294 296 298 299 299 300 300 301 300 299 299 298 296 292 290 289 286 284 283 283 283 283 283 283 283 283 283 283 283 283 283 282 282 282 282 282 282 282 282 284
290 292 293 295 297 297 298 299 299 300 300 300 300 300 298 294 290 289 287 285 283 282 282 282 282 282 282 282 283 283 283 283 283 282 282 282 282 282 283 283 283 284
289 291 292 294 296 297 297 298 299 300 300 300 300 299 298 294 290 289 288 286 284 283 282 282 282 282 282 282 282 282 283 284 283 283 283 283 283 284 284 284 284 284
289 290 291 293 295 296 297 298 299 299 299 299 298 297 296 292 288 286 287 286 285 284 283 283 283 282 282 282 282 283 284 284 284 284 284 285 285 285 285 285 284 284
288 289 291 293 294 295 297 298 297 297 297 297 296 295 293 290 286 283 283 284 283 283 283 283 283 283 283 283 283 284 284 284 284 284 285 285 285 285 285 285 284 285
288 290 292 293 294 295 296 296 296 296 296 295 294 294 291 288 284 282 281 282 282 282 282 282 283 283 283 283 283 284 284 284 284 285 285 285 284 284 285 285 285 285
288 291 292 294 295 295 295 294 294 294 294 293 292 292 290 287 284 282 281 281 282 282 282 282 282 282 282 283 283 283 283 284 284 284 284 284 284 285 285 285 286 286
288 290 292 293 294 295 294 293 292 291 291 291 290 291 290 287 285 283 282 281 281 282 282 283 283 283 283 283 283 283 283 284 284 284 285 284 285 285 286 286 287 287
289 290 291 292 293 293 293 292 290 289 289 289 289 290 289 287 285 284 283 282 281 281 281 282 282 282 283 283 284 284 284 285 285 285 286 286 286 286 287 287 287 287
290 291 291 292 292 293 292 290 288 287 288 288 288 288 287 286 285 284 284 283 282 282 282 282 282 282 283 283 284 285 285 285 286 286 287 287 287 287 287 288 288 289
290 290 291 292 292 293 291 288 287 287 286 287 286 286 285 284 283 283 283 283 283 282 282 283 284 284 283 283 283 284 284 285 286 286 287 287 288 288 288 289 289 289
289 290 291 292 293 292 289 287 286 286 285 285 284 283 283 282 282 282 282 282 282 283 283 284 285 285 285 285 285 285 285 286 286 286 286 287 287 287 288 288 288 289
289 290 291 292 293 291 288 287 286 286 285 283 282 281 281 281 281 281 281 281 282 283 284 285 286 286 286 287 288 288 288 288 288 288 288 288 288 289 289 288 288 289
289 290 291 292 292 290 288 287 287 286 285 282 280 280 280 280 281 280 280 281 282 283 284 285 286 287 288 289 289 290 290 290 290 290 290 290 290 290 290 290 290 289
289 290 291 292 291 290 289 288 287 286 283 280 280 280 279 280 280 279 280 281 282 284 285 285 286 287 288 289 289 289 289 290 290 290 289 289 289 289 289 289 289 289
288 290 291 291 291 290 289 288 286 284 281 279 279 279 278 278 278 279 280 282 283 284 285 286 287 287 287 288 288 288 289 289 289 289 288 288 287 287 287 287 288 288
287 289 290 290 290 289 287 286 284 281 279 278 278 278 277 277 277 279 281 282 284 286 287 288 288 288 288 288 288 288 288 288 288 287 287 286 286 286 286 286 286 286
287 287 288 288 287 286 285 284 283 281 278 277 278 278 277 277 277 279 281 283 285 287 288 288 289 289 289 288 287 287 287 286 286 285 285 284 284 284 284 284 285 285
287 286 286 285 285 285 285 285 285 283 280 278 278 278 277 277 278 279 281 283 285 286 287 288 288 288 288 287 287 287 287 286 285 284 284 284 283 283 283 283 284 284
287 286 285 285 285 285 285 286 286 285 282 279 278 278 278 277 278 279 281 282 284 285 286 287 288 288 287 287 287 286 286 286 286 285 285 284 284 283 283 283 283 283
288 287 286 286 286 286 286 286 286 286 284 281 279 278 278 278 278 279 281 283 284 285 286 288 288 288 287 287 287 287 287 286 286 286 286 285 285 285 285 284 284 283
286 286 286 285 285 285 285 285 285 285 285 283 281 279 278 278 278 279 281 283 284 285 287 288 289 289 288 288 287 287 287 287 287 286 285 285 285 285 286 285 284 282
283 283 283 283 283 283 283 283 283 283 284 284 283 281 279 279 279 280 281 283 284 286 287 289 289 289 289 288 288 288 288 288 287 286 285 286 286 287 287 286 284 282
Height
5816 5814 5813 5812 5810 5809 5807 5805 5803 5801 5799 5796 5794 5791 5789 5787 5786 5784 5783 5782 5780 5779 5777 5776 5774 5772 5771 5769 5768 5766 5764 5763 5762 5760 5758 5757 5755 5753 5752 5750 5749 5748
5811 5810 5808 5806 5805 5804 5802 5800 5798 5795 5793 5791 5789 5786 5784 5781 5779 5778 5777 5775 5774 5772 5771 5770 5768 5766 5765 5764 5762 5761 5759 5757 5756 5754 5752 5751 5750 5748 5746 5744 5743 5741
5805 5804 5803 5801 5800 5798 5796 5794 5792 5789 5787 5785 5783 5781 5778 5775 5773 5771 5770 5768 5767 5766 5764 5763 5762 5760 5759 5758 5756 5755 5753 5751 5749 5747 5746 5745 5743 5742 5740 5738 5736 5735
5800 5798 5797 5796 5794 5792 5790 5788 5785 5782 5780 5778 5776 5774 5772 5770 5767 5765 5763 5762 5760 5759 5757 5756 5755 5754 5753 5751 5750 5748 5747 5745 5743 5741 5739 5738 5737 5735 5733 5731 5730 5729
5793 5792 5791 5790 5788 5787 5784 5781 5778 5775 5774 5772 5770 5768 5766 5763 5761 5759 5757 5755 5754 5752 5751 5750 5749 5748 5746 5745 5744 5742 5741 5739 5737 5734 5733 5732 5730 5729 5727 5725 5724 5723
5787 5786 5785 5784 5783 5781 5778 5775 5771 5769 5767 5766 5764 5762 5759 5757 5754 5752 5750 5749 5747 5746 5744 5743 5742 5741 5740 5738 5737 5736 5734 5733 5731 5728 5726 5725 5723 5722 5720 5719 5717 5716
5780 5779 5779 5778 5777 5775 5772 5769 5766 5763 5761 5759 5757 5755 5752 5750 5747 5745 5744 5742 5741 5739 5738 5737 5735 5734 5733 5731 5730 5729 5727 5726 5724 5722 5720 5718 5717 5715 5713 5712 5710 5709
5772 5771 5772 5772 5771 5769 5766 5763 5759 5757 5754 5751 5750 5748 5746 5743 5741 5739 5737 5736 5735 5733 5732 5730 5729 5727 5726 5724 5723 5722 5720 5718 5717 5716 5714 5712 5710 5708 5706 5705 5703 5702
5764 5764 5764 5765 5765 5763 5760 5757 5753 5749 5747 5744 5742 5740 5738 5736 5734 5733 5731 5730 5729 5727 5726 5724 5722 5721 5719 5718 5716 5714 5713 5711 5709 5708 5707 5704 5702 5701 5699 5698 5696 5695
5758 5757 5756 5756 5756 5755 5753 5750 5745 5742 5739 5737 5735 5733 5731 5730 5728 5727 5725 5723 5723 5721 5720 5718 5716 5714 5713 5711 5709 5708 5706 5704 5702 5701 5699 5698 5695 5693 5692 5690 5689 5687
5751 5751 5750 5749 5748 5747 5745 5742 5738 5734 5732 5730 5728 5726 5725 5723 5722 5720 5719 5717 5716 5715 5713 5711 5710 5708 5706 5704 5702 5701 5699 5697 5695 5694 5692 5691 5689 5686 5685 5683 5682 5680
5744 5744 5743 5742 5741 5739 5736 5733 5730 5727 5725 5723 5721 5719 5718 5717 5715 5713 5712 5711 5709 5708 5706 5705 5703 5701 5699 5697 5695 5694 5692 5690 5689 5687 5685 5684 5682 5680 5678 5677 5675 5673
5735 5735 5735 5733 5732 5730 5727 5724 5722 5720 5718 5716 5714 5713 5711 5710 5708 5706 5705 5703 5702 5701 5699 5697 5696 5694 5692 5691 5689 5687 5685 5683 5682 5681 5679 5677 5675 5674 5672 5670 5668 5666
5726 5726 5726 5724 5723 5721 5718 5716 5714 5712 5711 5709 5707 5706 5704 5703 5701 5699 5698 5696 5695 5693 5692 5690 5689 5687 5686 5684 5682 5681 5679 5677 5676 5674 5672 5670 5669 5667 5665 5663 5661 5660
5718 5717 5717 5715 5714 5713 5710 5708 5707 5705 5704 5702 5700 5699 5698 5696 5695 5693 5691 5689 5688 5686 5685 5683 5682 5681 5679 5677 5676 5675 5673 5671 5669 5668 5666 5664 5662 5661 5659 5656 5654 5653
5710 5709 5708 5707 5706 5704 5702 5701 5699 5698 5697 5696 5694 5692 5691 5690 5688 5687 5685 5683 5681 5680 5678 5677 5676 5674 5673 5671 5670 5668 5667 5665 5663 5661 5660 5658 5656 5654 5652 5649 5647 5645
5703 5701 5700 5699 5698 5697 5695 5693 5692 5691 5691 5689 5688 5686 5685 5684 5682 5681 5679 5677 5675 5674 5673 5671 5669 5668 5666 5665 5663 5661 5660 5658 5656 5655 5653 5651 5649 5647 5644 5642 5639 5637
5696 5694 5694 5692 5691 5689 5688 5687 5686 5685 5684 5683 5681 5680 5678 5677 5676 5675 5673 5672 5670 5668 5667 5665 5663 5661 5660 5658 5656 5655 5653 5651 5650 5648 5646 5644 5642 5640 5637 5634 5632 5630
5689 5688 5687 5685 5684 5682 5681 5681 5680 5679 5677 5676 5675 5673 5672 5671 5670 5669 5667 5666 5664 5662 5660 5659 5657 5655 5653 5652 5650 5648 5646 5644 5642 5640 5639 5637 5634 5632 5630 5627 5625 5622
5682 5681 5680 5678 5677 5676 5675 5674 5673 5672 5671 5669 5668 5667 5666 5665 5663 5662 5661 5659 5657 5656 5654 5652 5651 5648 5647 5645 5643 5641 5639 5636 5635 5632 5631 5629 5626 5624 5622 5620 5617 5615
5675 5674 5674 5672 5671 5669 5668 5667 5666 5665 5664 5662 5661 5660 5658 5658 5656 5655 5653 5651 5650 5649 5647 5645 5643 5641 5639 5637 5635 5633 5631 5629 5626 5624 5622 5620 5618 5616 5614 5611 5609 5607
5667 5667 5666 5665 5664 5663 5661 5660 5659 5657 5656 5654 5653 5652 5651 5650 5648 5647 5645 5643 5642 5641 5639 5637 5635 5633 5631 5629 5627 5625 5623 5620 5618 5616 5614 5612 5610 5608 5605 5603 5601 5599
5659 5659 5658 5657 5656 5655 5654 5652 5651 5649 5648 5646 5645 5644 5642 5641 5640 5638 5636 5635 5633 5632 5630 5628 5626 5624 5622 5620 5618 5616 5614 5612 5609 5607 5605 5602 5600 5599 5597 5595 5593 5590
5651 5650 5649 5648 5647 5646 5645 5644 5642 5641 5640 5639 5637 5636 5634 5632 5631 5629 5627 5625 5624 5622 5620 5618 5616 5614 5612 5611 5609 5607 5605 5603 5601 5598 5596 5594 5591 5590 5588 5586 5584 5581
5643 5642 5641 5640 5638 5637 5635 5634 5633 5632 5631 5630 5628 5627 5625 5623 5621 5620 5618 5616 5614 5612 5611 5609 5606 5604 5602 5601 5599 5598 5596 5594 5592 5589 5587 5585 5582 5580 5579 5577 5575 5572
5635 5634 5633 5631 5629 5628 5626 5625 5624 5622 5621 5620 5619 5617 5615 5614 5612 5610 5608 5606 5604 5602 5601 5599 5597 5595 5593 5591 5589 5588 5586 5584 5583 5580 5578 5575 5573 5571 5569 5567 5565 5563